GW4444 Weather Reports


Display with metric or nautical units.
time (UTC)temp
F
wind
direction
speed
MPH
gust
MPH
rain 1hr
in
rain 24hr
in
rain mn
in
humidity
%
barometer
mb
20260510224516 81 113 17.0 27.0 0.00 0.00 0.00 20 1016.5
20260510223017 81 113 17.0 25.0 0.00 0.00 0.00 21 1016.0
20260510221516 82 113 18.0 28.0 0.00 0.00 0.00 21 1016.3
20260510220017 81 113 19.0 31.0 0.00 0.00 0.00 22 1016.0
20260510214517 84 135 9.0 26.0 0.00 0.00 0.00 20 1017.0
20260510213017 84 90 9.0 18.0 0.00 0.00 0.00 9 1016.4
20260510211516 84 90 10.0 18.0 0.00 0.00 0.00 9 1016.5
20260510210016 84 90 8.0 17.0 0.00 0.00 0.00 10 1016.6
20260510204516 84 23 6.0 14.0 0.00 0.00 0.00 9 1016.3
20260510203016 84 225 4.0 9.0 0.00 0.00 0.00 8 1016.4
20260510111536 67 23 6.0 9.0 0.00 0.00 0.00 25 1016.9
20260510110015 67 45 5.0 9.0 0.00 0.00 0.00 26 1017.1
20260510104536 69 45 4.0 6.0 0.00 0.00 0.00 24 1017.3
20260510103017 72 113 4.0 11.0 0.00 0.00 0.00 23 1017.7
20260510101517 71 90 13.0 39.0 0.00 0.00 0.00 23 1018.1
20260510100016 67 293 8.0 26.0 0.00 0.00 0.00 21 1017.5
20260510094517 69 315 7.0 11.0 0.00 0.00 0.00 20 1017.1
20260510093017 69 315 7.0 10.0 0.00 0.00 0.00 20 1016.3
20260510091517 67 0 6.0 9.0 0.00 0.00 0.00 21 1015.8
20260510090017 67 0 7.0 10.0 0.00 0.00 0.00 21 1016.2
20260510084517 66 338 6.0 9.0 0.00 0.00 0.00 21 1015.8
20260510083017 66 338 6.0 9.0 0.00 0.00 0.00 21 1015.7
20260510081517 66 315 7.0 11.0 0.00 0.00 0.00 21 1015.4
20260510080017 64 293 7.0 12.0 0.00 0.00 0.00 21 1015.0
20260510074517 65 315 6.0 9.0 0.00 0.00 0.00 20 1015.1
20260510073017 66 315 7.0 11.0 0.00 0.00 0.00 18 1014.7
20260510071537 67 338 8.0 12.0 0.00 0.00 0.00 18 1014.8
20260510070017 68 338 9.0 13.0 0.00 0.00 0.00 17 1014.6
20260510064517 67 315 8.0 13.0 0.00 0.00 0.00 18 1014.5
20260510063017 69 315 8.0 11.0 0.00 0.00 0.00 16 1014.5
20260510061537 68 315 7.0 15.0 0.00 0.00 0.00 17 1013.9
20260510060017 64 270 6.0 9.0 0.00 0.00 0.00 17 1013.0
20260510054517 70 338 4.0 8.0 0.00 0.00 0.00 15 1013.3
20260510053017 69 23 6.0 9.0 0.00 0.00 0.00 15 1012.8
20260510051518 69 23 8.0 11.0 0.00 0.00 0.00 15 1012.7
20260510050038 67 23 7.0 12.0 0.00 0.00 0.00 16 1011.8
20260510044518 72 338 5.0 15.0 0.00 0.00 0.00 14 1012.6
20260510043017 73 338 4.0 7.0 0.00 0.00 0.00 13 1012.5
20260510041517 74 315 4.0 8.0 0.00 0.00 0.00 13 1012.1
20260510040017 74 293 3.0 6.0 0.00 0.00 0.00 13 1011.6
20260510034517 75 270 3.0 7.0 0.00 0.00 0.00 13 1011.6
20260510033038 76 315 4.0 10.0 0.00 0.00 0.00 12 1010.7
20260510031517 78 315 6.0 12.0 0.00 0.00 0.00 12 1010.9
20260510030017 78 338 5.0 8.0 0.00 0.00 0.00 12 1009.8
20260510024517 79 0 4.0 9.0 0.00 0.00 0.00 12 1009.9
20260510023017 80 0 6.0 9.0 0.00 0.00 0.00 11 1009.1
20260510021517 81 338 9.0 16.0 0.00 0.00 0.00 11 1009.3
20260510020037 83 0 10.0 16.0 0.00 0.00 0.00 10 1009.7
20260510014558 84 0 9.0 13.0 0.00 0.00 0.00 10 1009.5
20260510013017 85 338 10.0 14.0 0.00 0.00 0.00 10 1008.7
20260510011517 85 0 14.0 23.0 0.00 0.00 0.00 10 1008.5
20260510010037 85 338 14.0 20.0 0.00 0.00 0.00 9 1008.6
20260510004517 87 315 11.0 18.0 0.00 0.00 0.00 9 1009.0
20260510003016 88 315 12.0 19.0 0.00 0.00 0.00 8 1009.2
20260510001517 87 23 4.0 9.0 0.00 0.00 0.00 9 1009.0
20260510000016 86 338 4.0 9.0 0.00 0.00 0.00 9 1008.8
20260509234516 86 293 3.0 9.0 0.00 0.00 0.00 10 1008.9
20260509233017 86 315 5.0 16.0 0.00 0.00 0.00 10 1009.6
20260509231516 84 315 18.0 44.0 0.00 0.00 0.00 11 1009.8
20260509230016 85 315 13.0 31.0 0.00 0.00 0.00 10 1009.7